When you browse on this site, cookies collect data to enhance your experience and personalize the content and advertising you see.
Visit our Privacy Policy to learn more. By continuing to use the site, you agree to this use of cookies and data.
  • In Österreich
  • Länderverzeichnis
  • Für 7 Tage
  • Wassertemperatur
  • Satellitenkarten
  • Wetterkarte
  • News
  • Widgets
  • user-avatar
    Anmelden

    Stündliche Wetter Sapporo

    Heute, 20 Juli, Samstag

    Zeit Temperatur Niederschläge Wind Luftdruck Luftfeuchtigkeit
    00:00 +20°C° 0 mm 3 m/S 757 mmHg 94%
    01:00 +20°C° 0 mm 2 m/S 757 mmHg 95%
    02:00 +20°C° 0 mm 2 m/S 756 mmHg 95%
    03:00 +19°C° 0 mm 2 m/S 756 mmHg 95%
    04:00 +20°C° 0 mm 2 m/S 757 mmHg 94%
    05:00 +20°C° 0 mm 2 m/S 757 mmHg 93%
    06:00 +21°C° 0 mm 2 m/S 758 mmHg 91%
    07:00 +22°C° 0 mm 3 m/S 758 mmHg 86%
    08:00 +24°C° 0 mm 3 m/S 758 mmHg 82%
    09:00 +26°C° 0 mm 2 m/S 758 mmHg 76%
    10:00 +26°C° 0.8 mm 2 m/S 758 mmHg 76%
    11:00 +26°C° 0.8 mm 2 m/S 758 mmHg 77%
    12:00 +27°C° 0.8 mm 2 m/S 758 mmHg 78%
    13:00 +27°C° 1.3 mm 2 m/S 758 mmHg 78%
    14:00 +27°C° 1.3 mm 2 m/S 758 mmHg 79%
    15:00 +26°C° 0 mm 2 m/S 758 mmHg 79%
    16:00 +25°C° 0.5 mm 2 m/S 758 mmHg 82%
    17:00 +24°C° 0.5 mm 2 m/S 758 mmHg 86%
    18:00 +23°C° 0.5 mm 2 m/S 758 mmHg 89%
    19:00 +23°C° 0 mm 2 m/S 758 mmHg 91%
    20:00 +21°C° 0 mm 2 m/S 759 mmHg 92%
    21:00 +20°C° 0 mm 2 m/S 759 mmHg 93%
    22:00 +20°C° 0 mm 2 m/S 759 mmHg 94%
    23:00 +20°C° 0 mm 3 m/S 759 mmHg 94%

    Morgen, 21 Juli, Sonntag

    Zeit Temperatur Niederschläge Wind Luftdruck Luftfeuchtigkeit
    00:00 +19°C° 0 mm 3 m/S 759 mmHg 94%
    01:00 +19°C° 0 mm 3 m/S 759 mmHg 94%
    02:00 +19°C° 0 mm 3 m/S 759 mmHg 94%
    03:00 +19°C° 0 mm 3 m/S 759 mmHg 94%
    04:00 +19°C° 0 mm 3 m/S 759 mmHg 93%
    05:00 +20°C° 0 mm 3 m/S 759 mmHg 92%
    06:00 +20°C° 0 mm 3 m/S 759 mmHg 91%
    07:00 +21°C° 0 mm 3 m/S 759 mmHg 85%
    08:00 +24°C° 0 mm 3 m/S 759 mmHg 79%
    09:00 +25°C° 0 mm 3 m/S 759 mmHg 73%
    10:00 +25°C° 0 mm 4 m/S 759 mmHg 72%
    11:00 +26°C° 0 mm 4 m/S 759 mmHg 70%
    12:00 +26°C° 0 mm 5 m/S 759 mmHg 68%
    13:00 +26°C° 0 mm 5 m/S 758 mmHg 68%
    14:00 +26°C° 0 mm 5 m/S 758 mmHg 68%
    15:00 +26°C° 0 mm 5 m/S 758 mmHg 68%
    16:00 +25°C° 0 mm 5 m/S 758 mmHg 71%
    17:00 +23°C° 0 mm 4 m/S 758 mmHg 75%
    18:00 +22°C° 0 mm 4 m/S 758 mmHg 79%
    19:00 +20°C° 0 mm 4 m/S 758 mmHg 83%
    20:00 +19°C° 0 mm 4 m/S 758 mmHg 86%
    21:00 +18°C° 0 mm 4 m/S 758 mmHg 90%
    22:00 +18°C° 0 mm 4 m/S 758 mmHg 90%
    23:00 +19°C° 0 mm 4 m/S 758 mmHg 90%

    übermorgen, 22 Juli, Montag

    Zeit Temperatur Niederschläge Wind Luftdruck Luftfeuchtigkeit
    00:00 +19°C° 0 mm 5 m/S 757 mmHg 89%
    01:00 +19°C° 0 mm 5 m/S 757 mmHg 89%
    02:00 +19°C° 0 mm 5 m/S 757 mmHg 89%
    03:00 +19°C° 0 mm 5 m/S 756 mmHg 89%
    04:00 +19°C° 0 mm 5 m/S 756 mmHg 88%
    05:00 +19°C° 0 mm 5 m/S 756 mmHg 88%
    06:00 +19°C° 0 mm 5 m/S 756 mmHg 87%
    07:00 +20°C° 0 mm 6 m/S 756 mmHg 84%
    08:00 +21°C° 0 mm 6 m/S 755 mmHg 81%
    09:00 +21°C° 0 mm 6 m/S 755 mmHg 78%
    10:00 +22°C° 0 mm 6 m/S 755 mmHg 76%
    11:00 +23°C° 0 mm 7 m/S 755 mmHg 73%
    12:00 +23°C° 0 mm 7 m/S 754 mmHg 70%
    13:00 +23°C° 0 mm 7 m/S 754 mmHg 70%
    14:00 +23°C° 0 mm 7 m/S 754 mmHg 71%
    15:00 +23°C° 0 mm 7 m/S 753 mmHg 71%
    16:00 +22°C° 0 mm 6 m/S 753 mmHg 75%
    17:00 +21°C° 0 mm 6 m/S 753 mmHg 79%
    18:00 +19°C° 0 mm 6 m/S 753 mmHg 82%
    19:00 +19°C° 0 mm 6 m/S 753 mmHg 84%
    20:00 +17°C° 0 mm 6 m/S 753 mmHg 86%
    21:00 +17°C° 0 mm 6 m/S 753 mmHg 87%
    22:00 +17°C° 0 mm 6 m/S 753 mmHg 87%
    23:00 +17°C° 0 mm 6 m/S 753 mmHg 86%

    23 Juli, Dienstag

    Zeit Temperatur Niederschläge Wind Luftdruck Luftfeuchtigkeit
    00:00 +17°C° 0 mm 6 m/S 753 mmHg 86%
    01:00 +17°C° 0 mm 6 m/S 752 mmHg 86%
    02:00 +17°C° 0 mm 6 m/S 752 mmHg 86%
    03:00 +17°C° 0 mm 6 m/S 752 mmHg 86%
    04:00 +17°C° 0 mm 6 m/S 752 mmHg 86%
    05:00 +17°C° 0 mm 6 m/S 752 mmHg 87%
    06:00 +17°C° 0 mm 6 m/S 751 mmHg 87%
    07:00 +19°C° 0 mm 6 m/S 751 mmHg 85%
    08:00 +20°C° 0 mm 6 m/S 751 mmHg 83%
    09:00 +21°C° 0 mm 6 m/S 751 mmHg 81%
    10:00 +21°C° 0 mm 6 m/S 751 mmHg 80%
    11:00 +22°C° 0 mm 6 m/S 751 mmHg 79%
    12:00 +22°C° 0 mm 6 m/S 750 mmHg 78%
    13:00 +22°C° 0 mm 6 m/S 750 mmHg 77%
    14:00 +23°C° 0 mm 6 m/S 750 mmHg 76%
    15:00 +23°C° 0 mm 6 m/S 750 mmHg 76%
    16:00 +22°C° 0 mm 6 m/S 750 mmHg 79%
    17:00 +21°C° 0 mm 5 m/S 750 mmHg 82%
    18:00 +20°C° 0 mm 5 m/S 750 mmHg 85%
    19:00 +20°C° 0 mm 5 m/S 750 mmHg 87%
    20:00 +19°C° 0 mm 5 m/S 750 mmHg 88%
    21:00 +19°C° 0 mm 5 m/S 750 mmHg 90%
    22:00 +19°C° 0 mm 5 m/S 750 mmHg 90%
    23:00 +19°C° 0 mm 5 m/S 750 mmHg 90%

    24 Juli, Mittwoch

    Zeit Temperatur Niederschläge Wind Luftdruck Luftfeuchtigkeit
    00:00 +19°C° 0 mm 4 m/S 750 mmHg 90%
    01:00 +19°C° 0 mm 4 m/S 750 mmHg 90%
    02:00 +19°C° 0 mm 4 m/S 750 mmHg 90%
    03:00 +19°C° 0 mm 4 m/S 750 mmHg 90%
    04:00 +19°C° 0 mm 4 m/S 750 mmHg 90%
    05:00 +20°C° 0 mm 4 m/S 749 mmHg 89%
    06:00 +20°C° 0 mm 4 m/S 749 mmHg 88%
    07:00 +21°C° 0 mm 4 m/S 749 mmHg 84%
    08:00 +23°C° 0 mm 4 m/S 749 mmHg 80%
    09:00 +25°C° 0 mm 4 m/S 750 mmHg 77%
    10:00 +26°C° 0.1 mm 4 m/S 749 mmHg 76%
    11:00 +26°C° 0.1 mm 4 m/S 749 mmHg 76%
    12:00 +26°C° 0.1 mm 4 m/S 749 mmHg 76%
    13:00 +27°C° 0 mm 4 m/S 749 mmHg 74%
    14:00 +27°C° 0 mm 4 m/S 749 mmHg 73%
    15:00 +28°C° 0 mm 4 m/S 749 mmHg 71%
    16:00 +27°C° 0.5 mm 4 m/S 749 mmHg 78%
    17:00 +25°C° 0.5 mm 3 m/S 749 mmHg 84%
    18:00 +24°C° 0.5 mm 3 m/S 749 mmHg 91%
    19:00 +23°C° 1.2 mm 2 m/S 750 mmHg 93%
    20:00 +23°C° 1.2 mm 2 m/S 750 mmHg 94%
    21:00 +21°C° 1.2 mm 2 m/S 750 mmHg 96%
    22:00 +21°C° 0.7 mm 2 m/S 750 mmHg 96%
    23:00 +21°C° 0.7 mm 3 m/S 750 mmHg 96%

    25 Juli, Donnerstag

    Zeit Temperatur Niederschläge Wind Luftdruck Luftfeuchtigkeit
    00:00 +21°C° 0.7 mm 3 m/S 750 mmHg 96%
    01:00 +21°C° 0 mm 3 m/S 750 mmHg 96%
    02:00 +21°C° 0 mm 3 m/S 750 mmHg 95%
    03:00 +21°C° 0 mm 3 m/S 750 mmHg 95%
    04:00 +22°C° 0 mm 3 m/S 750 mmHg 95%
    05:00 +22°C° 0 mm 3 m/S 750 mmHg 94%
    06:00 +22°C° 0 mm 3 m/S 750 mmHg 93%
    07:00 +24°C° 0 mm 3 m/S 750 mmHg 89%
    08:00 +26°C° 0 mm 3 m/S 750 mmHg 85%
    09:00 +27°C° 0 mm 3 m/S 750 mmHg 80%
    10:00 +27°C° 0 mm 3 m/S 750 mmHg 80%
    11:00 +27°C° 0 mm 3 m/S 750 mmHg 80%
    12:00 +27°C° 0 mm 3 m/S 750 mmHg 80%
    13:00 +27°C° 0.2 mm 3 m/S 750 mmHg 81%
    14:00 +28°C° 0.2 mm 3 m/S 750 mmHg 81%
    15:00 +28°C° 0.2 mm 2 m/S 750 mmHg 82%
    16:00 +27°C° 0.3 mm 2 m/S 750 mmHg 85%
    17:00 +27°C° 0.3 mm 2 m/S 750 mmHg 88%
    18:00 +26°C° 0.3 mm 2 m/S 751 mmHg 91%
    19:00 +26°C° 0.2 mm 2 m/S 751 mmHg 92%
    20:00 +25°C° 0.2 mm 2 m/S 751 mmHg 94%
    21:00 +24°C° 0.2 mm 3 m/S 752 mmHg 96%
    22:00 +24°C° 0.5 mm 3 m/S 751 mmHg 96%
    23:00 +24°C° 0.5 mm 3 m/S 751 mmHg 96%
    Mehr zeigen